[[{"header":{"parameterUnit":"m.s-1","parameterCategory":1,"la1":30.2991,"la2":30.254,"lo1":-89.0895,"lo2":-89.0444,"dy":0.0017,"dx":0.0017,"nx":28,"ny":28,"refTime":"2024-08-31T21:00:00:Z","depth":0,"parameterNumber":2,"parameterNumberName":"U-component_of_WINDS"},"data":[0,0,0,0,0,0,0,0,0,0,0,0,0,0,0,0,0,0,0,0,0,0,0,0,0,0,0,0,0,0,0,0,0,0,0,0,0,0,0,0,0,0,0,0,0,0,0,0,0,0,0,0,0,0,0,0,0,0,-0.9354,-0.9354,0,-0.9403,-0.9403,-0.9404,-0.9343,-0.9341,-0.9338,-0.9336,-0.9392,-0.9396,-0.9399,0,0,0,0,0,0,0,0,0,0,0,0,0,-0.9213,-0.9216,-0.9354,-0.9355,-0.9355,-0.9403,-0.9404,-0.9404,-0.9343,-0.934,-0.9338,-0.9335,-0.9391,-0.9395,-0.9399,0,0,0,0,0,0,0,0,0,0,0,0,0,-0.9269,-0.9217,-0.9354,-0.933,-0.9329,-0.9403,-0.9404,-0.9404,-0.9344,-0.934,-0.9337,-0.9334,-0.9389,-0.9395,-0.94,-0.9501,0,0,-0.9416,-0.9419,0,0,0,0,0,0,0,0,-0.9266,-0.9275,-0.9333,-0.9332,-0.933,-0.9363,-0.9374,-0.9437,-0.9345,-0.9338,-0.9336,-0.9332,-0.9386,-0.9391,-0.9408,-0.9504,-0.9506,-0.9417,-0.942,-0.9423,-0.9424,0,0,0,0,0,0,0,-0.9262,-0.9272,-0.9373,-0.9334,-0.9332,-0.9319,-0.9323,-0.9386,-0.9381,-0.9339,-0.9334,-0.9341,-0.9384,-0.9403,-0.9409,-0.9507,-0.9417,-0.9422,-0.9425,-0.9427,-0.969,-0.9693,0,0,0,0,0,0,-0.926,-0.9269,-0.9372,-0.9375,-0.9289,-0.9324,-0.9329,-0.9356,-0.938,-0.938,-0.9343,-0.9338,-0.9395,-0.9403,-0.941,-0.9532,-0.9422,-0.9428,-0.9431,-0.9686,-0.9691,-0.9695,0,0,0,0,0,0,-0.9258,-0.927,-0.937,-0.9321,-0.9333,-0.933,-0.9361,-0.9359,-0.9377,-0.9383,-0.9382,-0.9363,-0.9393,-0.9403,-0.9479,-0.9533,-0.943,-0.9435,-0.9682,-0.9687,-0.9693,-0.9775,0,0,0,0,0,0,-0.9254,-0.9269,-0.9307,-0.9322,-0.9335,-0.9436,-0.9364,-0.9362,-0.9386,-0.9379,-0.9402,-0.9402,-0.9391,-0.9471,-0.9484,-0.9538,-0.9439,-0.9677,-0.9684,-0.9691,-0.9767,-0.9782,-0.9795,0,0,0,0,0,-0.9249,-0.9329,-0.9309,-0.9322,-0.9382,-0.944,-0.9447,-0.9431,-0.9391,-0.9429,-0.9433,-0.9401,-0.9524,-0.948,-0.9494,-0.955,-0.9673,-0.9682,-0.969,-0.9761,-0.9779,-0.9795,0,0,0,0,0,0,-0.9322,-0.9331,-0.9309,-0.9395,-0.9417,-0.9429,-0.9477,-0.9451,-0.9486,-0.9479,-0.9459,-0.9464,-0.9546,-0.9555,-0.9505,-0.965,-0.9592,-0.9604,-0.9641,-0.9659,-0.9673,-0.967,-0.9444,0,0,0,0,0,-0.9348,-0.9392,-0.9398,-0.9474,-0.9486,-0.948,-0.9504,-0.949,-0.9512,-0.9522,-0.9531,-0.9556,-0.96,-0.9629,-0.967,-0.9767,-0.9773,-0.9813,-0.9827,-0.9839,-0.985,-0.9904,-0.9923,-0.9722,-0.9722,-0.9722,0,0,-0.9403,-0.9413,-0.9442,-0.9489,-0.9504,-0.9553,-0.9488,-0.9542,-0.9578,-0.953,-0.9603,-0.9611,-0.9637,-0.9724,-0.9763,-0.9735,-0.9906,-0.985,-0.9859,-0.9864,-0.9915,-0.9934,-0.995,-0.9728,-0.9727,-0.9726,0,0,-0.9528,-0.9539,-0.9604,-0.962,-0.9643,-0.9638,-0.9654,-0.9669,-0.9672,-0.9744,-0.9709,-0.9753,-0.9829,-0.9849,-0.987,-1.0001,-0.9975,-1.0015,-1.009,-1.0143,-1.0159,-1.0173,-1.0222,-1.0239,-1.0026,-1.0026,-1.0026,0,-0.9594,-0.9663,-0.9641,-0.9698,-0.972,-0.9676,-0.9744,-0.9761,-0.9797,-0.9814,-0.9781,-0.9876,-0.989,-0.9982,-1.0014,-1.0031,-1.0051,-1.0014,-1.0158,-1.0171,-1.0184,-1.0231,-1.0249,-1.0031,-1.003,-1.003,-1.0029,0,-0.9744,-0.9793,-0.9844,-0.9878,-0.9905,-0.9967,-0.9956,-0.9987,-0.997,-0.9969,-1.0044,-1.0059,-1.0103,-1.0123,-1.0107,-1.0214,-1.0195,-1.016,-1.0102,-1.0209,-1.0252,-1.027,-1.0038,-1.0036,-1.0035,-1.0034,0,0,-0.9919,-0.9939,-0.9958,-0.9973,-0.9995,-1.0033,-1.0093,-1.0134,-1.0162,-1.0188,-1.0239,-1.0304,-1.0272,-1.0295,-1.0281,-1.0327,-1.0433,-1.0286,-1.0286,-1.0315,-1.0553,-1.0581,-1.0602,-1.0413,-1.0417,-1.0419,-1.0552,0,-1.0046,-1.0148,-1.0129,-1.023,-1.0276,-1.0235,-1.0287,-1.0307,-1.0308,-1.0349,-1.035,-1.0397,-1.0349,-1.0363,-1.0406,-1.0411,-1.0481,-1.04,-1.0464,-1.0467,-1.0461,-1.0625,-1.0655,-1.0779,-1.0568,-1.0571,-1.0573,0,-1.0207,-1.0238,-1.0343,-1.0357,-1.0376,-1.0423,-1.0459,-1.0498,-1.052,-1.0517,-1.0543,-1.052,-1.0582,-1.0521,-1.0607,-1.0553,-1.0578,-1.0584,-1.0588,-1.0596,-1.0528,-1.0639,-1.0818,-1.0838,-1.06,-1.0597,-1.0596,0,-1.0327,-1.0394,-1.0466,-1.048,-1.0498,-1.0532,-1.0542,-1.056,-1.0586,-1.0618,-1.0635,-1.0675,-1.0697,-1.0729,-1.0719,-1.0675,-1.0808,-1.0745,-1.081,-1.081,-1.0842,-1.0841,-1.103,-1.0853,-1.0853,-1.0853,-1.0852,0,-1.0472,-1.0539,-1.052,-1.0564,-1.0638,-1.0616,-1.069,-1.0695,-1.0711,-1.0757,-1.0724,-1.0768,-1.075,-1.0794,-1.0786,-1.0859,-1.0869,-1.0871,-1.0868,-1.0875,-1.0876,-1.0893,-1.0885,-1.0858,-1.0857,-1.0856,-1.0855,0,-1.062,-1.0609,-1.0685,-1.0695,-1.0699,-1.0754,-1.0763,-1.0806,-1.0803,-1.0861,-1.0874,-1.0871,-1.092,-1.0912,-1.0967,-1.0962,-1.1055,-1.104,-1.1047,-1.1045,-1.111,-1.1105,-1.1319,-1.1347,-1.1151,-1.1153,-1.1154,0,-1.0715,-1.0764,-1.0779,-1.0807,-1.0818,-1.0863,-1.0889,-1.0869,-1.0898,-1.0927,-1.0967,-1.1012,-1.1048,-1.113,-1.1134,-1.1176,-1.1164,-1.1236,-1.1171,-1.1176,-1.1168,-1.1167,-1.1172,-1.125,-1.1253,-1.1254,-1.1256,0,-1.0885,-1.0877,-1.0914,-1.095,-1.0981,-1.1009,-1.1034,-1.1059,-1.1042,-1.1076,-1.1125,-1.1153,-1.1208,-1.1255,-1.1295,-1.1306,-1.128,-1.1276,-1.1293,-1.1303,-1.1305,-1.1307,-1.1085,-1.1272,-1.127,-1.1269,-1.1268,-1.1268,-1.101,-1.1053,-1.107,-1.1113,-1.1129,-1.1153,-1.1194,-1.1195,-1.1235,-1.1278,-1.1264,-1.1321,-1.1342,-1.1392,-1.1408,-1.1453,-1.1427,-1.1452,-1.1458,-1.1466,-1.1474,-1.1295,-1.146,-1.1459,-1.1459,-1.1458,-1.1458,0,-1.118,-1.1189,-1.1229,-1.1264,-1.1298,-1.1266,-1.1292,-1.1324,-1.1373,-1.1394,-1.143,-1.1487,-1.1532,-1.1539,-1.1582,-1.1617,-1.1606,-1.163,-1.1628,-1.1632,-1.1494,-1.1476,-1.1638,-1.1638,-1.1638,-1.1638,-1.1638,-1.1638,-1.1273,-1.1344,-1.1339,-1.1418,-1.1426,-1.148,-1.1498,-1.152,-1.1537,-1.1602,-1.1638,-1.1641,-1.1657,-1.1701,-1.1742,-1.1743,-1.1762,-1.179,-1.1787,-1.1659,-1.1641,-1.1624,-1.1607,-1.1794,-1.1794,-1.1921,-1.1922,-1.1923]},{"header":{"parameterUnit":"m.s-1","parameterCategory":1,"la1":30.2991,"la2":30.254,"lo1":-89.0895,"lo2":-89.0444,"dy":0.0017,"dx":0.0017,"nx":28,"ny":28,"refTime":"2024-08-31T21:00:00:Z","depth":0,"parameterNumber":3,"parameterNumberName":"V-component_of_WINDS"},"data":[0,0,0,0,0,0,0,0,0,0,0,0,0,0,0,0,0,0,0,0,0,0,0,0,0,0,0,0,0,0,0,0,0,0,0,0,0,0,0,0,0,0,0,0,0,0,0,0,0,0,0,0,0,0,0,0,0,0,-2.1764,-2.1764,0,-2.1782,-2.1783,-2.1783,-2.1749,-2.1748,-2.1747,-2.1746,-2.1764,-2.1766,-2.1767,0,0,0,0,0,0,0,0,0,0,0,0,0,-2.1697,-2.1699,-2.1764,-2.1764,-2.1764,-2.1782,-2.1783,-2.1783,-2.1749,-2.1748,-2.1747,-2.1745,-2.1764,-2.1765,-2.1767,0,0,0,0,0,0,0,0,0,0,0,0,0,-2.1722,-2.1699,-2.1764,-2.175,-2.1749,-2.1782,-2.1783,-2.1783,-2.175,-2.1748,-2.1746,-2.1745,-2.1763,-2.1765,-2.1767,-2.1816,0,0,-2.1775,-2.1776,0,0,0,0,0,0,0,0,-2.1721,-2.1725,-2.1751,-2.1751,-2.1749,-2.1762,-2.1766,-2.1794,-2.175,-2.1749,-2.1746,-2.1744,-2.1765,-2.1767,-2.1774,-2.1816,-2.1817,-2.1775,-2.1776,-2.1777,-2.1778,0,0,0,0,0,0,0,-2.1719,-2.1724,-2.1771,-2.1752,-2.1751,-2.1742,-2.1743,-2.1771,-2.1766,-2.1749,-2.1747,-2.1749,-2.1764,-2.1772,-2.1774,-2.1817,-2.1775,-2.1777,-2.1778,-2.1779,-2.1899,-2.1901,0,0,0,0,0,0,-2.1719,-2.1722,-2.177,-2.1772,-2.1731,-2.1744,-2.1746,-2.1759,-2.1766,-2.1765,-2.1751,-2.1748,-2.1769,-2.1771,-2.1775,-2.183,-2.1777,-2.1779,-2.1781,-2.1897,-2.1899,-2.1901,0,0,0,0,0,0,-2.1718,-2.1724,-2.177,-2.1746,-2.1751,-2.1747,-2.1762,-2.1761,-2.1769,-2.1767,-2.1766,-2.176,-2.1767,-2.1771,-2.1805,-2.1831,-2.178,-2.1782,-2.1895,-2.1898,-2.19,-2.1943,0,0,0,0,0,0,-2.1716,-2.1724,-2.1742,-2.1747,-2.1753,-2.1801,-2.1764,-2.1762,-2.1773,-2.1769,-2.1775,-2.1775,-2.1766,-2.1802,-2.1808,-2.1833,-2.1784,-2.1893,-2.1896,-2.19,-2.1939,-2.1947,-2.1953,0,0,0,0,0,-2.1714,-2.1754,-2.1743,-2.1749,-2.1776,-2.1802,-2.1806,-2.1795,-2.1775,-2.1793,-2.1792,-2.1775,-2.1827,-2.1806,-2.1812,-2.1838,-2.1891,-2.1895,-2.1899,-2.1936,-2.1945,-2.1953,0,0,0,0,0,0,-2.1752,-2.1754,-2.1743,-2.1785,-2.1794,-2.1797,-2.1819,-2.1806,-2.182,-2.1816,-2.1802,-2.1804,-2.1841,-2.1843,-2.1819,-2.1884,-2.1856,-2.1861,-2.1882,-2.189,-2.1897,-2.1896,-2.1786,0,0,0,0,0,-2.1765,-2.1787,-2.1787,-2.1825,-2.1829,-2.1824,-2.1835,-2.1826,-2.1834,-2.1838,-2.1839,-2.1848,-2.1866,-2.1878,-2.1895,-2.194,-2.194,-2.196,-2.1967,-2.1973,-2.1978,-2.2001,-2.2009,-2.1915,-2.1915,-2.1915,0,0,-2.1793,-2.1797,-2.1811,-2.1832,-2.1838,-2.186,-2.1827,-2.1852,-2.1868,-2.1842,-2.1874,-2.1875,-2.1883,-2.1923,-2.194,-2.1926,-2.2004,-2.1978,-2.1983,-2.1984,-2.2006,-2.2015,-2.2023,-2.1918,-2.1917,-2.1917,0,0,-2.1854,-2.186,-2.1891,-2.1897,-2.1906,-2.1902,-2.191,-2.1914,-2.1914,-2.1946,-2.1927,-2.1945,-2.1977,-2.1984,-2.1991,-2.2055,-2.2039,-2.206,-2.2097,-2.2119,-2.2126,-2.2133,-2.2155,-2.2163,-2.2065,-2.2065,-2.2065,0,-2.1888,-2.192,-2.1909,-2.1935,-2.1944,-2.1921,-2.1952,-2.1959,-2.1973,-2.198,-2.1964,-2.2003,-2.2007,-2.2047,-2.2062,-2.2069,-2.2077,-2.2059,-2.2126,-2.2133,-2.2139,-2.2159,-2.2168,-2.2068,-2.2068,-2.2067,-2.2067,0,-2.196,-2.1983,-2.2007,-2.2021,-2.2033,-2.2062,-2.2054,-2.2068,-2.2058,-2.2055,-2.2087,-2.2092,-2.2108,-2.2117,-2.2108,-2.2156,-2.2146,-2.2129,-2.2099,-2.215,-2.2169,-2.2177,-2.2072,-2.2071,-2.207,-2.2069,0,0,-2.2046,-2.2053,-2.2062,-2.2068,-2.2076,-2.2093,-2.212,-2.2136,-2.2148,-2.2158,-2.218,-2.2207,-2.219,-2.2199,-2.219,-2.221,-2.2258,-2.2189,-2.2189,-2.2201,-2.231,-2.2323,-2.2333,-2.2248,-2.2249,-2.2251,-2.2309,0,-2.2107,-2.2154,-2.2144,-2.2189,-2.221,-2.2188,-2.2211,-2.2218,-2.2217,-2.2233,-2.2231,-2.225,-2.2227,-2.2232,-2.225,-2.2249,-2.228,-2.2244,-2.2267,-2.2268,-2.2265,-2.2343,-2.2357,-2.2412,-2.2317,-2.2318,-2.2319,0,-2.2184,-2.2197,-2.2244,-2.2248,-2.2256,-2.2278,-2.2291,-2.2308,-2.2315,-2.2312,-2.2321,-2.2309,-2.2334,-2.2305,-2.2341,-2.2316,-2.2325,-2.2326,-2.2328,-2.2329,-2.2296,-2.2346,-2.2429,-2.2438,-2.2331,-2.233,-2.2329,0,-2.2241,-2.227,-2.2302,-2.2308,-2.2313,-2.2329,-2.2331,-2.2337,-2.2347,-2.2359,-2.2365,-2.238,-2.2388,-2.24,-2.2391,-2.2371,-2.2428,-2.2398,-2.2425,-2.2426,-2.2438,-2.2437,-2.2524,-2.2445,-2.2445,-2.2444,-2.2444,0,-2.2309,-2.2339,-2.2328,-2.2348,-2.238,-2.2368,-2.24,-2.2401,-2.2406,-2.2424,-2.2407,-2.2425,-2.2412,-2.2429,-2.2422,-2.2452,-2.2456,-2.2454,-2.2452,-2.2455,-2.2455,-2.246,-2.2456,-2.2447,-2.2446,-2.2446,-2.2445,0,-2.2378,-2.2372,-2.2406,-2.2408,-2.2409,-2.2433,-2.2434,-2.2452,-2.2449,-2.2473,-2.2478,-2.2472,-2.2491,-2.2484,-2.2504,-2.2499,-2.2537,-2.253,-2.2534,-2.2532,-2.256,-2.2557,-2.2652,-2.2664,-2.2578,-2.2579,-2.258,0,-2.2422,-2.2445,-2.2449,-2.246,-2.2464,-2.2483,-2.2493,-2.2482,-2.2493,-2.2503,-2.2519,-2.2537,-2.255,-2.2581,-2.2578,-2.2593,-2.2586,-2.2618,-2.2588,-2.2591,-2.2585,-2.2584,-2.2586,-2.2624,-2.2625,-2.2626,-2.2627,0,-2.25,-2.2496,-2.2511,-2.2526,-2.2538,-2.2549,-2.2558,-2.2569,-2.2558,-2.2571,-2.259,-2.26,-2.262,-2.2637,-2.265,-2.2653,-2.2638,-2.2636,-2.2643,-2.2647,-2.2648,-2.2647,-2.255,-2.2634,-2.2633,-2.2633,-2.2632,-2.2632,-2.2558,-2.2576,-2.2582,-2.2599,-2.2605,-2.2614,-2.263,-2.2629,-2.2644,-2.266,-2.2652,-2.2674,-2.268,-2.2696,-2.27,-2.2717,-2.2704,-2.2714,-2.2717,-2.2719,-2.2723,-2.2646,-2.2719,-2.2719,-2.2719,-2.2718,-2.2718,0,-2.2634,-2.2636,-2.2653,-2.2666,-2.2679,-2.2664,-2.2673,-2.2686,-2.2705,-2.2712,-2.2725,-2.2746,-2.2762,-2.2761,-2.2776,-2.2789,-2.2783,-2.2793,-2.2792,-2.2793,-2.2734,-2.2726,-2.2798,-2.2798,-2.2798,-2.2798,-2.2798,-2.2798,-2.2675,-2.2705,-2.2702,-2.2734,-2.2736,-2.2757,-2.2764,-2.2771,-2.2776,-2.2801,-2.2814,-2.2813,-2.2817,-2.2831,-2.2845,-2.2844,-2.285,-2.2864,-2.286,-2.2805,-2.2797,-2.2789,-2.2782,-2.2865,-2.2865,-2.2918,-2.2918,-2.2919]}]]